CDT,Max TemperatureF,Mean TemperatureF,Min TemperatureF,Max Dew PointF,MeanDew PointF,Min DewpointF,Max Humidity, Mean Humidity, Min Humidity, Max Sea Level PressureIn, Mean Sea Level PressureIn, Min Sea Level PressureIn, Max VisibilityMiles, Mean VisibilityMiles, Min VisibilityMiles, Max Wind SpeedMPH, Mean Wind SpeedMPH, Max Gust SpeedMPH,PrecipitationIn, CloudCover, Events, WindDirDegrees
2013-3-1,31,28,25,28,26,22,92,85,78,30.17,30.08,30.02,10,6,2,22,13,25,T,8,Snow,355
2013-3-2,31,26,20,25,21,15,85,77,69,30.21,30.17,30.12,10,8,2,18,13,23,T,6,Snow,334
2013-3-3,34,25,16,22,17,13,88,68,47,30.19,30.15,30.11,10,10,10,12,6,15,0.00,0,,334
2013-3-4,35,30,25,28,25,22,82,73,64,30.12,30.02,29.91,10,8,2,23,13,30,T,6,Snow,98
2013-3-5,36,32,28,34,30,26,100,88,75,29.97,29.82,29.76,10,3,0,33,16,43,0.23,8,Fog-Rain-Snow,328
2013-3-6,31,29,27,26,25,24,92,85,78,30.35,30.23,30.00,10,7,2,29,18,37,T,8,Snow,319
2013-3-7,35,31,27,27,24,23,92,78,64,30.44,30.40,30.35,10,9,6,12,4,13,0.00,6,,356
2013-3-8,43,34,24,32,28,22,92,77,62,30.49,30.41,30.31,10,9,5,16,8,20,0.00,0,,100
2013-3-9,52,43,33,41,35,29,89,78,66,30.27,30.08,29.85,10,10,9,24,14,30,0.01,4,Rain,135
2013-3-10,60,54,48,51,46,37,100,79,57,29.84,29.74,29.66,10,9,4,26,16,32,0.11,7,Rain,175
2013-3-11,50,41,32,48,37,28,100,91,82,29.93,29.71,29.62,10,7,2,26,17,32,0.01,8,Rain,249
2013-3-12,43,36,28,36,27,22,85,70,55,30.12,30.01,29.92,10,9,1,33,19,40,0.02,6,Snow,274
2013-3-13,36,30,24,22,20,18,88,70,52,30.39,30.27,30.12,10,9,2,24,14,29,T,5,Snow,294
2013-3-14,41,31,20,30,24,17,92,76,59,30.39,30.28,30.13,10,10,8,18,9,23,T,4,,180
2013-3-15,56,42,28,45,35,26,92,77,61,30.10,29.91,29.68,10,7,2,14,7,17,0.00,1,,170
2013-3-16,42,38,33,38,34,27,100,85,70,30.10,29.85,29.62,10,6,0,23,13,28,0.00,6,Fog,353
2013-3-17,41,37,32,30,27,24,78,69,59,30.16,30.06,29.89,10,10,8,22,15,26,0.01,7,Rain,68
2013-3-18,40,34,27,36,32,19,100,85,69,29.95,29.74,29.66,10,6,1,33,17,39,0.04,7,Rain,359
2013-3-19,43,33,22,20,17,13,81,56,30,30.18,30.08,29.94,10,10,10,33,17,39,0.00,0,,271
2013-3-20,31,26,20,19,12,7,81,60,39,30.19,30.13,30.09,10,10,10,28,18,35,0.00,2,,296
2013-3-21,36,24,12,15,10,7,80,56,32,30.12,30.07,30.03,10,9,2,18,6,21,T,1,Snow,312
2013-3-22,45,31,17,23,16,13,80,54,28,30.10,30.06,30.01,10,10,10,9,4,14,0.00,2,,191
2013-3-23,51,42,33,25,23,21,69,51,32,30.09,30.02,29.94,10,10,10,21,10,26,0.00,4,,47
2013-3-24,34,32,30,30,28,23,92,78,64,29.92,29.69,29.53,10,3,0,29,20,36,0.32,8,Fog-Snow,31
2013-3-25,34,31,28,29,27,25,92,82,72,30.12,29.90,29.71,10,4,1,28,18,36,0.02,8,Snow,327
2013-3-26,37,33,28,28,27,25,85,78,70,30.31,30.23,30.13,10,10,10,16,10,20,0.00,6,,291
2013-3-27,40,33,26,27,24,22,92,71,50,30.39,30.35,30.31,10,10,10,13,7,15,0.00,2,,264
2013-3-28,46,34,22,29,25,19,88,69,49,30.41,30.36,30.32,10,10,6,7,4,12,0.00,0,,262
2013-3-29,55,44,33,35,32,26,89,68,46,30.33,30.28,30.23,10,9,7,10,4,14,0.00,4,,82
2013-3-30,57,45,32,43,36,29,89,70,51,30.24,30.09,29.91,10,9,6,18,9,23,T,2,,160
2013-3-31,62,51,39,45,42,32,100,76,51,29.92,29.85,29.79,10,6,2,24,13,30,T,6,Rain,274